BEIDOU-2 G1

Last updated on Thu Nov 21 2024 00:02:41 GMT+0000 (Coordinated Universal Time)

1 36287U 10001A 24325.32312372 -.00000279 00000+0 00000+0 0 9994 2 36287 2.9628 59.7121 0004301 256.8726 0.0112 1.00273501 54411
UTC large
Height (km)
Speed (km/s)
/
Latitude / Longitude
Inclination (degrees)
Orbital Period (minutes)
Azimuth
Elevation
Range (km)
Doppler Factor

Next 0 passes for location: London (51.5072 / 0.1276)

Sorry there are no passes over London.